Hourly Data Report for October 05, 2014

All times are specified in Local Standard Time (LST). Add 1 hour to adjust for Daylight Saving Time where and when it is observed.

TORONTO INTL A
ONTARIO

43°40'36.000" N
79°37'50.000" W
173.40 m
6158731
71624
YYZ

Download Data

Hourly Data (October 2014)
Hourly Data Report for October 5, 2014
Temp Definition
°C
Dew Point Temp Definition
°C
Rel Hum Definition
%
Wind Dir Definition
10's deg

Wind Spd Definition
km/h
Visibility Definition
km
Stn Press Definition
kPa
Hmdx Definition


Wind Chill Definition


Weather Definition


TIME
00:00 Legend Double Dagger 4.5 1.7 82 22 14 24.1 98.31     LegendNANA
01:00 Legend Double Dagger 4.5 1.5 81 23 15 24.1 98.31     Mainly Clear
02:00 Legend Double Dagger 3.9 1.1 82 21 8 24.1 98.28     LegendNANA
03:00 Legend Double Dagger 3.5 1.2 85 21 11 24.1 98.28     LegendNANA
04:00 Legend Double Dagger 3.6 1.2 84 20 12 24.1 98.31     Mostly Cloudy
05:00 Legend Double Dagger 3.4 1.3 86 21 12 24.1 98.33     LegendNANA
06:00 Legend Double Dagger 3.8 1.7 86 20 11 24.1 98.39     LegendNANA
07:00 Legend Double Dagger 4.2 2.2 87 19 8 24.1 98.41     Mostly Cloudy
08:00 Legend Double Dagger 6.6 3.6 81 21 15 24.1 98.47     LegendNANA
09:00 Legend Double Dagger 9.3 4.7 73 24 21 24.1 98.50     LegendNANA
10:00 Legend Double Dagger 10.8 5.2 68 25 26 24.1 98.53     Mostly Cloudy
11:00 Legend Double Dagger 12.0 4.8 61 24 29 24.1 98.53     LegendNANA
12:00 Legend Double Dagger 12.4 3.7 55 26 26 24.1 98.54     LegendNANA
13:00 Legend Double Dagger 11.8 3.6 57 27 23 24.1 98.52     Mostly Cloudy
14:00 Legend Double Dagger 12.2 3.0 53 25 23 24.1 98.53     LegendNANA
15:00 Legend Double Dagger 12.2 2.4 51 25 30 24.1 98.55     LegendNANA
16:00 Legend Double Dagger 12.2 1.9 49 25 28 24.1 98.58     Mostly Cloudy
17:00 Legend Double Dagger 11.3 2.1 53 24 27 24.1 98.61     LegendNANA
18:00 Legend Double Dagger 11.1 1.4 51 21 19 24.1 98.68     LegendNANA
19:00 Legend Double Dagger 10.1 1.5 55 21 22 24.1 98.77     Mostly Cloudy
20:00 Legend Double Dagger 9.9 2.1 58 19 14 24.1 98.81     LegendNANA
21:00 Legend Double Dagger 9.9 3.0 62 20 12 24.1 98.83     LegendNANA
22:00 Legend Double Dagger 10.1 2.7 60 17 13 24.1 98.80     Mostly Cloudy
23:00 Legend Double Dagger 10.4 3.2 61 19 13 24.1 98.78     LegendNANA

Notes on Data Quality.

Legend

  • E = Estimated
  • M = Missing
  • NA = Not Available
  • ‡ = Partner data that is not subject to review by the National Climate Archives
Date modified: